TimeCDT,TemperatureF,Dew PointF,Humidity,Sea Level PressureIn,VisibilityMPH,Wind Direction,Wind SpeedMPH,Gust SpeedMPH,PrecipitationIn,Events,Conditions,WindDirDegrees,DateUTC
12:53 AM,62.1,51.1,67,29.70,10.0,South,5.8,-,N/A,,Clear,190,2013-10-01 05:53:00
1:53 AM,61.0,51.1,70,29.78,10.0,NNW,4.6,-,N/A,,Clear,340,2013-10-01 06:53:00
2:53 AM,55.9,51.1,84,29.80,10.0,NNW,6.9,-,N/A,,Clear,330,2013-10-01 07:53:00
3:53 AM,55.0,48.9,80,29.82,10.0,NW,6.9,-,N/A,,Clear,320,2013-10-01 08:53:00
4:53 AM,52.0,46.9,83,29.85,10.0,NW,6.9,-,N/A,,Clear,320,2013-10-01 09:53:00
5:53 AM,48.9,45.0,86,29.88,10.0,NW,6.9,-,N/A,,Clear,320,2013-10-01 10:53:00
6:53 AM,48.9,43.0,80,29.91,10.0,NW,8.1,-,N/A,,Clear,320,2013-10-01 11:53:00
7:53 AM,48.0,42.1,80,29.96,10.0,Calm,Calm,-,N/A,,Clear,0,2013-10-01 12:53:00
8:53 AM,53.1,44.1,71,29.98,10.0,NNW,3.5,-,N/A,,Clear,330,2013-10-01 13:53:00
9:53 AM,61.0,44.1,54,29.99,10.0,North,5.8,-,N/A,,Clear,10,2013-10-01 14:53:00
10:53 AM,66.0,37.9,36,30.00,10.0,NNE,8.1,-,N/A,,Clear,20,2013-10-01 15:53:00
11:53 AM,70.0,33.1,26,30.00,10.0,NE,11.5,-,N/A,,Clear,40,2013-10-01 16:53:00
12:53 PM,71.1,34.0,26,29.99,10.0,NNE,10.4,16.1,N/A,,Clear,30,2013-10-01 17:53:00
1:53 PM,72.0,35.1,26,29.98,10.0,East,6.9,-,N/A,,Clear,80,2013-10-01 18:53:00
2:53 PM,73.9,35.1,24,29.96,10.0,NE,5.8,-,N/A,,Clear,40,2013-10-01 19:53:00
3:53 PM,75.0,36.0,24,29.95,10.0,ENE,9.2,-,N/A,,Clear,60,2013-10-01 20:53:00
4:53 PM,73.9,36.0,25,29.94,10.0,ESE,5.8,-,N/A,,Clear,110,2013-10-01 21:53:00
5:53 PM,73.0,37.0,27,29.95,10.0,East,6.9,-,N/A,,Clear,90,2013-10-01 22:53:00
6:53 PM,68.0,42.1,39,29.94,10.0,Calm,Calm,-,N/A,,Clear,0,2013-10-01 23:53:00
7:53 PM,55.9,43.0,62,29.98,7.0,Calm,Calm,-,N/A,,Clear,0,2013-10-02 00:53:00
8:53 PM,51.1,44.1,77,29.98,10.0,Calm,Calm,-,N/A,,Clear,0,2013-10-02 01:53:00
9:53 PM,50.0,44.1,80,29.98,10.0,Calm,Calm,-,N/A,,Clear,0,2013-10-02 02:53:00
10:53 PM,48.0,45.0,89,29.97,10.0,Calm,Calm,-,N/A,,Clear,0,2013-10-02 03:53:00
11:53 PM,48.9,44.1,83,29.96,10.0,Calm,Calm,-,N/A,,Clear,0,2013-10-02 04:53:00